User: anonymous   Login
Location: Unspecified
(35.7250°N, 0.0000°E)
Time: 12:31:03
(UTC+00:00)
Language:

Explorer 7 - Orbit

View from above orbital plane
View from above orbital plane
View from above satellite
View from above satellite

Ground track
Ground track

The orbit data is extracted from the following two-line orbital elements,

1    22U 59009A   20296.21882896  .00000680  00000-0  73568-4 0  9997
2    22  50.2837 227.2405 0139483  23.0435 337.6689 14.95242714244290
Epoch (UTC): 22 October 2020 05:15:06
Eccentricity: 0.0139483
inclination: 50.2837°
perigee height: 484 km
apogee height: 679 km
right ascension of ascending node: 227.2405°
argument of perigee: 23.0435°
revolutions per day: 14.95242714
mean anomaly at epoch: 337.6689°
orbit number at epoch: 24429

The dashed part of the orbit path shows where the satellite is in the earth's shadow,  

DLR